Location: Branche des Alpilles
(43.6087°N, 4.6976°E)
Time: 06:02:55
(UTC+00:00)

Envisat - Pass Details

Date: 05 October 2021
Orbit: 764 x 766 km, 98.2° (Epoch: 23 October)

Event Time Altitude Azimuth Distance (km) Brightness Sun altitude
Rises 04:25:08 0° 18° (NNE) 3,240 6.6 -15.0°
Reaches altitude 10° 04:27:32 10° 25° (NNE) 2,309 5.9 -14.5°
Maximum altitude 04:32:27 47° 99° (E) 1,003 4.1 -13.7°
Drops below altitude 10° 04:37:19 10° 173° (S) 2,293 5.5 -12.8°
Sets 04:39:41 0° 179° (S) 3,214 6.2 -12.4°
